www.pogodaiklimat.ru

Погода и климат >> Архив погоды >> Россия >> Красноярский край >> Бор


АРХИВ ПОГОДЫ в Бору

Время (UTC), дата Ветер
(напр.,м/с)
 
Видим.   Явления Облачность Т
(С)
Тd
(С)
f
(%)
Тe
(С)
Тes
(С)
Комфортность P
(гПа)
Po
(гПа)
Тmin
(С)
Tmax
(С)
R
(мм)
R24
(мм)
S
(см)
03 12.09 З 2 18 км слаб. ливневой снег 10/10 300 м
[Cb cap]
+0.4 -2.9 78 -3 -3 1008.8 1001.6
06 12.09 З 3 18 км слаб. ливневой снег 10/10 600 м
[Cb cap]
+0.9 -0.8 88 -4 -4 1008.2 1001.0
09 12.09 З 3
{10}
18 км слаб. ливневой снег 10/10 600 м
[Cb cap]
+0.9 +0.9 100 -4 -4 1008.8 1001.6
12 12.09 З 2 17 км слаб. ливневой снег 10/10 600 м
[Cb cap]
+0.6 +0.6 100 -3 -3 1008.7 1001.5 +1.5 3
15 12.09 СЗ 2 н/о слаб. ливневой снег 10/10 600 м
[Cb cap]
-1.2 -1.5 98 -5 -5 1009.2 1002.0
18 12.09 СЗ 2 н/о {ливн. осадки} 10/10 600 м
[Cb cap]
-1.7 -2.2 96 -6 -6 1009.6 1002.4
21 12.09 штиль 0 н/о слаб. ливневой снег 10/10 600 м
[Cb cap]
-1.8 -2.0 99 -3 -3 1008.4 1001.2
00 13.09 З 2 20 км {ливн. осадки} [диам. изморози 1 мм] 10/10 600 м
[Cb cap]
-0.5 -0.8 98 -4 -4 1006.0 998.8 -3.3 6 1
03 13.09 З 3 20 км слаб. ливневой снег 10/10 600 м
[Cb cap]
+0.1 -0.2 98 -5 -5 1005.5 998.3
06 13.09 СЗ 4 18 км слаб. ливневой дождь 10/10 600 м
[Cb cap]
+2.3 +1.3 93 -3 -3 1004.9 997.8
09 13.09 СЗ 4-11
{11}
18 км слаб. ливневой дождь 10/10 600 м
[Cb cap]
+4.6 +2.9 89 0 0 1005.6 998.5
12 13.09 СЗ 3 18 км {ливн. осадки} 10/10 600 м
[Cb cap]
+4.4 +2.9 90 +1 +1 1007.0 999.9 +5.5 0.6
15 13.09 СЗ 3 н/о 10/10 600 м
[Cb cap]
+3.8 +3.3 97 -0 -0 1008.7 1001.6
18 13.09 СЗ 2 н/о 8/8 600 м
[Cb cap]
+3.7 +1.9 88 +1 +1 1010.0 1002.9
21 13.09 СЗ 2 н/о 10/8 600 м
[Cb cap]
+3.2 +1.7 90 0 0 1011.1 1004.0
00 14.09 СЗ 1 20 км 10/10 600 м
[Sc]
+2.8 +1.2 89 +1 +1 1012.2 1005.1 +2.5 1
03 14.09 З 1 20 км 10/10 600 м
[Cb cap]
+3.3 +1.0 85 +2 +2 1013.5 1006.3
06 14.09 З 2 20 км {ливн. осадки} 9/9 600 м
[Cb cap]
+4.8 +0.1 72 +2 +3 1013.6 1006.4
09 14.09 СЗ 1 50 км 8/8 600 м
[Cb cap]
+6.9 +0.3 63 +6 +7 1013.2 1006.1
12 14.09 В 1 20 км 9/9 600 м
[Sc]
+6.2 +1.7 73 +5 +5 1012.7 1005.5 +8.1 0.0
15 14.09 Ю 1 н/о 9/9 600 м
[Sc]
+4.4 +3.7 95 +3 +3 1012.4 1005.6
18 14.09 штиль 0 н/о {ливн. осадки} 10/10 600 м
[Cb cap]
+2.3 +1.8 96 +1 +1 1011.7 1004.6
21 14.09 Ю 1 н/о 10/10 600 м
[Cb cap]
+1.7 +1.2 96 -0 -0 1011.1 1003.9
00 15.09 штиль 0 20 км 10/10 600 м
[Cb cap]
+2.8 +2.3 97 +2 +2 1011.2 1004.1 +1.5 0.0
03 15.09 СЗ 2 20 км 10/10 600 м
[Cb cap]
+4.3 +3.1 92 +1 +1 1011.5 1004.4
06 15.09 З 2 50 км 6/6 600 м
[Cb cap]
+6.0 -1.5 59 +4 +6 1012.3 1005.1
09 15.09 СЗ 2 50 км 3/3 600 м
[Cu med, cong]
+8.5 -2.5 46 +7 +9 1012.7 1005.6
12 15.09 штиль 0 20 км 3/3 600 м
[Sc]
+5.2 +0.9 74 +4 +4 1013.5 1006.3 +8.9
15 15.09 штиль 0 н/о ясно +0.7 +0.2 96 -1 -1 1014.8 1007.5
18 15.09 штиль 0 н/о ясно -2.0 -2.3 98 -3 -3 1015.8 1008.5
21 15.09 штиль 0 н/о 8/0
[Ci fib]
-2.3 -2.6 98 -4 -4 1016.6 1009.3
00 16.09 В 1 20 км 9/6 600 м
[Sc Ci fib]
-1.0 -1.1 99 -3 -3 1016.7 1009.4 -2.8
03 16.09 штиль 0 20 км 10/0
[Ac trans Cs]
+1.4 +0.9 96 0 +2 1017.1 1009.8
06 16.09 ЮВ 2 18 км слаб. ливневой дождь 10/6 600 м
[Cb cap Ac As]
+3.2 +3.0 99 -0 +1 1016.1 1008.9
09 16.09 Ю 2 20 км {ливн. осадки} 10/10 600 м
[Cb cap]
+3.9 +3.2 95 +1 +1 1014.5 1007.3
12 16.09 Ю 2 20 км {ливн. осадки} 10/10 600 м
[Cb cap]
+4.4 +3.9 97 +1 +1 1014.3 1007.1 +5.4 5
15 16.09 ЮВ 1 н/о слаб. дождь 10/10 600 м
[Sc]
+5.4 +5.4 100 +4 +4 1014.4 1007.2
18 16.09 ЮВ 1 н/о слаб. дождь 10/10 600 м
[Sc]
+6.5 +6.3 99 +5 +5 1013.6 1006.4
21 16.09 Ю 1 н/о {дождь} 10/10 600 м
[Cb cap]
+8.5 +8.1 97 +8 +8 1012.6 1005.5
00 17.09 ЮВ 1 18 км слаб. ливневой дождь {гроза} 10/10 600 м
[Cb cap]
+9.4 +9.0 97 +9 +9 1012.5 1005.4 +5.0 0.6
03 17.09 Ю 2 20 км {ливн. осадки} 10/10 600 м
[Cb cap]
+10.9 +10.3 96 +9 +9 1011.9 1004.9
06 17.09 З 1 20 км {ливн. осадки} 10/10 600 м
[Cb cap]
+12.8 +11.1 89 +13 +13 1011.0 1004.1
09 17.09 ЮЗ 2 50 км 6/6 600 м
[Cb cap]
+14.1 +10.7 80 +14 +15 1009.7 1002.8
12 17.09 В 1 20 км 8/6 600 м
[Sc Ci fib]
+15.6 +11.7 78 +16 +16 1008.3 1001.4 +16.4 0.8
15 17.09 Ю 2 н/о 6/6 1000 м
[Sc]
+13.0 +12.1 94 +12 +12 1006.7 999.8
18 17.09 Ю 3 н/о гроза, ливневой дождь 8/8 1000 м
[Cb cap]
+14.0 +11.0 82 +13 +13 1004.8 997.9
21 17.09 Ю 2 н/о в посл. час ливневой дождь {гроза} 8/8 600 м
[Cb cap]
+12.1 +11.1 94 +11 +11 1003.7 996.8
00 18.09 З 2 18 км слаб. ливневой дождь {гроза} 10/8 600 м
[Cb cap As op]
+10.7 +10.1 96 +9 +9 1004.6 997.6 +10.7 3
03 18.09 З 1 20 км {ливн. осадки} 9/9 600 м
[Cb cap]
+10.6 +9.4 92 +10 +10 1004.8 997.8
06 18.09 ЮЗ 2 20 км {ливн. осадки} 10/10 600 м
[Cb cap]
+11.3 +8.7 84 +10 +10 1008.2 1001.3
09 18.09 ЮЗ 2 50 км 8/6 600 м
[Sc Ac cast]
+13.2 +8.6 74 +13 +13 1008.6 1001.7
12 18.09 Ю 1 20 км 9/8 600 м
[Sc Ci fib]
+12.1 +8.0 76 +12 +12 1010.1 1003.2 +14.1 0.0
15 18.09 штиль 0 н/о 6/6 600 м
[Sc]
+9.1 +8.3 95 +8 +8 1011.4 1004.4
18 18.09 штиль 0 н/о слаб. ливневой дождь 8/8 600 м
[Cb cap]
+8.4 +8.0 97 +7 +7 1012.2 1005.1
21 18.09 штиль 0 н/о {ливн. осадки} 3/3 600 м
[Cb cap]
+7.7 +7.3 97 +7 +7 1011.9 1004.9
00 19.09 штиль 0 20 км {ливн. осадки} 5/3 600 м
[Sc Ac trans Ci fib]
+5.2 +5.0 99 +4 +4 1012.4 1005.2 +4.8 2

 

Местоположение метеостанции Бор (Красноярский край, Россия): широта 61.60 долгота 90.02 высота над уровнем моря 58 м.

В архиве по умолчанию представлена погода в Бору за последнюю неделю. Архивные данные за месяц целиком и за предыдущие месяцы, начиная с января 2011 года, Вы можете получить, выбрав интересующий диапазон дат из раскрывающегося списка и нажав кнопку "Ввод!".


*Определитесь, кто Вы:
робот инопланетянин человек

Внимание! Время в таблицах - всемирное. Для получения местного времени необходимо прибавить поправку, которая равна 7 ч.

Смотрите также архив погоды в соседних городах и на ближайших метеорологических станциях:

Погода в Ворогово (Красноярский край, Россия) (67 км)
Погода в Бахте (Красноярский край, Россия) (110 км)
Погода в Кузьмовке (Эвенкия, Россия) (136 км)
Погода в Ярцево (Красноярский край, Россия) (147 км)
Погода в Сыме (Красноярский край, Россия) (165 км)
Погода в Вельмо (Красноярский край, Россия) (193 км)
Погода в Верхнеимбатске (Красноярский край, Россия) (203 км)
Погода в Северо-Енисейском (Красноярский край, Россия) (212 км)
Погода в Келлоге (Красноярский край, Россия) (218 км)
Погода в Назимово (Красноярский край, Россия) (240 км)

Пояснения к столбцам:

Ветер - указаны скорость ветра в м/с - средняя за 10 мин, порывы в срок и между сроками (в фигурных скобках) и направление, откуда дует ветер: С - северный, СВ - северо-восточный, В - восточный, ЮВ - юго-восточный, Ю - южный, ЮЗ - юго-западный, З - западный, СЗ - северо-западный.
Видимость - горизонтальная дальность видимости в метрах или километрах. При видимости от 1 до 10 км при отсутствии осадков обычно наблюдается дымка, при ухудшении видимости до 1 км и менее - туман. В сухую погоду видимость может ухудшаться дымом, пылью или мглою.
Явления - указаны атмосферные явления, наблюдавшиеся в срок или в последний час перед сроком; фигурными скобками обозначены явления, наблюдавшиеся между сроками (за 1-3 часа до срока); квадратными скобками обозначены град или гололедные отложения с указанием их диаметра в мм.
Облачность - указаны через наклонную черту общая и нижняя облачность в баллах и высота нижней границы облаков в метрах; квадратными скобками обозначены формы облаков: Ci - перистые, Cs - перисто-слоистые, Cc - перисто-кучевые, Ac - высококучевые, As - высокослоистые, Sc - слоисто-кучевые, Ns - слоисто-дождевые, Cu - кучевые, Cb - кучево-дождевые. Подробнее классификацию облаков см. в Атласе облаков (PDF).
T - Температура воздуха - температура, измеренная на высоте 2 м над землей.
Td - Температура точки росы - температура, при понижении до которой содержащийся в воздухе водяной пар достигнет насыщения.
f - Относительная влажность воздуха - влажноcть воздуха, измеренная на высоте 2 м над землей.
Te - Эффективная температура - температура, которую ощущает одетый по сезону человек в тени. Характеристика душности погоды. При расчете учитывается влияние влажности воздуха и скорости ветра на теплоощущения человека.
Tes - Эффективная температура на солнце - температура, которую ощущает человек, с поправкой на солнечный нагрев. Характеристика знойности погоды. Зависит от высоты солнца над горизонтом, облачности и скорости ветра. Ночью, в пасмурную погоду, а также при ветре 12 м/с и более поправка равна нулю.
P - Атмосферное давление - приведенное к уровню моря атмосферное давление.
Po - Атмосферное давление - измеренное на уровне метеостанции атмосферное давление.
Tmin - Минимальная температура - минимум температуры воздуха на высоте 2 м над землей.
Tmax - Максимальная температура - максимум температуры воздуха на высоте 2 м над землей.
R - Количество осадков - Количество выпавших осадков за период времени, мм. При наведении курсора мыши на число - период времени, за который выпало указанное количество осадков.
R24 - Количество осадков - Количество выпавших осадков за 24 часа, мм.
S - Снежный покров - Высота снежного покрова, см. При наведении курсора мыши на число - состояние снежного покрова и степень покрытия местности в баллах.